Home > Weather > Kempten > Past weeks

Flag for Germany Past Weather in Kempten, Bavaria, Germany — Yesterday and Last 2 Weeks

Now
70 °F

Passing clouds.


Feels Like: 70 °F
Forecast: 56 / 78 °F
Wind: 5 mph from East

Location: Altenstadt Airport

Current Time: Jun 28, 2016 at 8:52:56 PM

Latest Report: Jun 28, 2016 at 8:20 PM


Visibility: N/A

Pressure: 30.04 "Hg (27.78 "Hg at 673m altitude)

Humidity: 53%

Dew Point: 52 °F

Location of KemptenLocation

Past Weather in Kempten — Graph

°F

Kempten Temperature Yesterday

Maximum temperature yesterday: 66 °F (at 3:20 PM)
Minimum temperature yesterday: 52 °F (at 2:20 AM)
Average temperature yesterday: 59 °F

High & Low Weather Summary for the Past Weeks

 TemperatureHumidityPressure
High86 °F (Jun 24, 3:20 PM)100% (Jun 16, 10:20 PM)30.33 "Hg (Jun 16, 10:20 PM)
Low45 °F (Jun 17, 5:20 AM)35% (Jun 23, 1:20 PM)29.59 "Hg (Jun 14, 3:20 PM)
Average60 °F77%30.03 "Hg
* Reported Jun 13 7:20 PM — Jun 28 7:20 PM, Kempten, Weather by CustomWeather, © 2016

Note: Actual official high and low records may vary slightly from our data, if they occured in-between our weather recording intervals... More about our weather records

Advertising

Kempten Weather History for the Previous 24 Hours

Scroll right to see more
 ConditionsComfort  
Time TempWeatherWind HumidityBarometerVisibility
7:20 PM
Tue, Jun 28
72 °FPassing clouds.7 mph47%30.04 "HgN/A
6:20 PM73 °FPassing clouds.5 mph44%30.04 "HgN/A
5:20 PM73 °FPassing clouds.1 mph41%30.07 "HgN/A
4:20 PM73 °FPassing clouds.5 mph41%30.07 "HgN/A
3:20 PM73 °FPassing clouds.5 mph44%30.09 "HgN/A
2:20 PM72 °FPassing clouds.7 mph47%30.09 "HgN/A
1:20 PM72 °FPassing clouds.5 mph44%30.12 "HgN/A
12:20 PM70 °FPassing clouds.3 mph46%30.12 "HgN/A
11:20 AM68 °FPassing clouds.2 mph46%30.15 "HgN/A
10:20 AM66 °FScattered clouds.6 mph56%30.15 "HgN/A
9:20 AM63 °FPartly sunny.5 mph64%30.15 "HgN/A
8:20 AM59 °FPartly sunny.2 mph77%30.15 "HgN/A
7:20 AM55 °FScattered clouds.3 mph82%30.15 "HgN/A
6:20 AM55 °FPartly sunny.2 mph82%30.15 "HgN/A
5:20 AM55 °FPassing clouds.2 mph82%30.15 "HgN/A
4:20 AM55 °FCool.3 mph82%30.15 "HgN/A
3:20 AM55 °FCool.3 mph82%30.18 "HgN/A
2:20 AM55 °FCool.3 mph88%30.18 "HgN/A
1:20 AM57 °FCool.3 mph82%30.18 "HgN/A
12:20 AM57 °FCool.3 mph82%30.18 "HgN/A
11:20 PM
Mon, Jun 27
59 °FCool.2 mph77%30.21 "HgN/A
10:20 PM59 °FCool.3 mph72%30.18 "HgN/A
9:20 PM61 °FCool.5 mph68%30.18 "HgN/A
8:20 PM61 °FPartly sunny.6 mph68%30.18 "HgN/A
Weather by CustomWeather, © 2016

See weather overviewHow to use our weather pages